[TLELIST] Archives

 

Current TLEs

February 23rd 2007 PDT

HST 1 20580U 90037B 07053.71656698 .00000378 00000-0 16547-4 0 8137 2 20580 028.4661 216.5401 0003598 321.4786 038.5546 15.00194259722759 ISS (ZARYA) 1 25544U 98067A 07054.34991015 .00073756 00000-0 40784-3 0 6999 2 25544 051.6358 332.2865 0020999 239.8336 220.9830 15.78612100472796 CXO 1 25867U 99040B 07053.95833333 .00000223 00000-0 00000+0 0 382 2 25867 061.2165 091.7387 6079473 286.1355 358.7197 00.37805748 1825 ____________________________________________________________________ These 2-Line ...Continue Reading

Current TLEs

February 22nd 2007 PDT

HST 1 20580U 90037B 07052.51907827 .00000413 00000-0 19223-4 0 8120 2 20580 028.4676 224.3703 0003659 306.9476 053.0785 15.00194134722578 ISS (ZARYA) 1 25544U 98067A 07053.15405949 .00019322 00000-0 11054-3 0 6901 2 25544 051.6366 338.4652 0020875 234.2117 266.1935 15.78589151472603 CXO 1 25867U 99040B 07053.95833333 .00000223 00000-0 00000+0 0 382 2 25867 061.2165 091.7387 6079473 286.1355 358.7197 00.37805748 1825 ____________________________________________________________________ These 2-Line ...Continue Reading

Current TLEs

February 21st 2007 PDT

HST 1 20580U 90037B 07051.85380500 +.00000405 +00000-0 +18643-4 0 08181 2 20580 028.4676 228.7069 0003662 300.0825 059.9400 15.00193749722477 ISS (ZARYA) 1 25544U 98067A 07052.38752512 .00017775 00000-0 10219-3 0 6863 2 25544 051.6367 342.4315 0020759 232.1106 229.2346 15.78556522472489 CXO 1 25867U 99040B 07051.29166667 .00000323 00000-0 00000+0 0 376 2 25867 061.1920 091.8191 6078035 286.1385 355.7625 00.37809293 1814 ____________________________________________________________________ These 2-Line ...Continue Reading

Current TLEs

February 20th 2007 PDT

HST 1 20580U 90037B 07050.85589509 .00000417 00000-0 19547-4 0 8110 2 20580 028.4676 235.2119 0003651 289.8879 070.1319 15.00193338722329 ISS (ZARYA) 1 25544U 98067A 07051.43888007 .00021612 00000-0 12345-3 0 6796 2 25544 051.6363 347.3330 0021018 228.0593 238.7427 15.78528405472337 CXO 1 25867U 99040B 07051.29166667 .00000323 00000-0 00000+0 0 376 2 25867 061.1920 091.8191 6078035 286.1385 355.7625 00.37809293 1814 ____________________________________________________________________ These 2-Line ...Continue Reading

Current TLEs

February 19th 2007 PDT

HST 1 20580U 90037B 07048.92660235 +.00000426 +00000-0 +20278-4 0 08259 2 20580 028.4679 247.7902 0003696 269.6250 090.3915 15.00192441722036 ISS (ZARYA) 1 25544U 98067A 07050.42516324 .00021731 00000-0 12434-3 0 6739 2 25544 051.6367 352.5745 0021130 223.7355 238.5999 15.78484013472172 CXO 1 25867U 99040B 07051.29166667 .00000323 00000-0 00000+0 0 376 2 25867 061.1920 091.8191 6078035 286.1385 355.7625 00.37809293 1814 ____________________________________________________________________ These 2-Line ...Continue Reading

Current TLEs

February 18th 2007 PDT

HST 1 20580U 90037B 07048.92660235 .00000426 00000-0 20278-4 0 8103 2 20580 028.4679 247.7902 0003696 269.6250 090.3915 15.00192441722036 ISS (ZARYA) 1 25544U 98067A 07049.35589694 .00021447 00000-0 12303-3 0 6660 2 25544 051.6362 358.1021 0021152 220.0170 282.1428 15.78435376472007 CXO 1 25867U 99040B 07048.66666667 .00000355 00000-0 00000+0 0 362 2 25867 061.1694 091.8911 6073715 286.1336 358.4930 00.37807543 1802 ____________________________________________________________________ These 2-Line ...Continue Reading

Current TLEs

February 17th 2007 PDT

HST 1 20580U 90037B 07047.86216499 .00000409 00000-0 18913-4 0 8096 2 20580 028.4682 254.7296 0003739 258.6350 101.3821 15.00191794721871 ISS (ZARYA) 1 25544U 98067A 07048.34200308 .00021245 00000-0 12218-3 0 6593 2 25544 051.6364 003.3445 0021014 215.7188 281.3023 15.78389961471846 CXO 1 25867U 99040B 07048.66666667 .00000355 00000-0 00000+0 0 362 2 25867 061.1694 091.8911 6073715 286.1336 358.4930 00.37807543 1802 ____________________________________________________________________ These 2-Line ...Continue Reading

Current TLEs

February 16th 2007 PDT

HST 1 20580U 90037B 07045.93287173 +.00000398 +00000-0 +18076-4 0 08243 2 20580 028.4685 267.3067 0003766 238.7372 121.2849 15.00190822721583 ISS (ZARYA) 1 25544U 98067A 07047.51362468 .00020765 00000-0 11974-3 0 6535 2 25544 051.6359 007.6238 0020893 212.9234 253.9473 15.78352333471715 CXO 1 25867U 99040B 07046.00000000 .00000341 00000-0 00000+0 0 355 2 25867 061.1532 091.9509 6067928 286.1587 355.4848 00.37803966 1792 ____________________________________________________________________ These 2-Line ...Continue Reading

Current TLEs

February 15th 2007 PDT

HST 1 20580U 90037B 07045.93287173 .00000398 00000-0 18076-4 0 8085 2 20580 028.4685 267.3067 0003766 238.7372 121.2849 15.00190822721583 ISS (ZARYA) 1 25544U 98067A 07046.49995491 .00019859 00000-0 11496-3 0 6462 2 25544 051.6354 012.8631 0020789 209.1461 254.1541 15.78305657471557 CXO 1 25867U 99040B 07046.00000000 +.00000341 +00000-0 +00000-0 0 00345 2 25867 061.1532 091.9509 6067928 286.1587 355.4848 00.37803966001792 ____________________________________________________________________ These 2-Line ...Continue Reading

Current TLEs

February 14th 2007 PDT

HST 1 20580U 90037B 07044.86843381 .00000399 00000-0 18167-4 0 8076 2 20580 028.4687 274.2457 0003768 227.8267 132.1999 15.00190342721426 ISS (ZARYA) 1 25544U 98067A 07045.37031951 .00018565 00000-0 10798-3 0 6399 2 25544 051.6346 018.6993 0020834 204.4646 316.0976 15.78254770471376 CXO 1 25867U 99040B 07040.70833333 +.00000311 +00000-0 +00000-0 0 00335 2 25867 061.1239 092.0425 6057805 286.2773 355.0198 00.37804874001777 ____________________________________________________________________ These 2-Line ...Continue Reading
  • This mailing list is a public mailing list - anyone may join or leave, at any time.
  • This mailing list is announce-only.

International Space Station (ISS) / Hubble Space Telescope (HST) / Chandra X-Ray Observatory Orbital Data via EMAIL

Privacy Policy:

Private list